Weather in Hladkovychi

Ukraine / Zhytomyr Region     51°20′17″N   28°53′50″E
temp.,
°C
wind,
m/s
gust,
m/s
humid.,
%
clouds,
%
prec.,
mm/h
press.,
hPa
HPBL,
m
16 may, mon
mon1600:00+8wnw36875 0.0 101799
03:00+7wnw34915 0.0 101755
06:00+6wnw36905 0.0 1018117
09:00+12wnw58650 0.0 1018770
12:00+16nw684481 0.0 10172454
15:00+15nnw685093 0.0 10171338
18:00+15nnw574397 0.0 10172003
21:00+9nw22605 0.0 101818
17 may, tue
tue1700:00+7wnw34646 0.0 101845
03:00+7w387140 0.0 1017126
06:00+7w3876100 0.0 1016152
09:00+11wnw58642 0.0 1016758
12:00+14nw79374 0.0 10152065
15:00+15nw79335 0.0 10142455
18:00+13nw69425 0.0 10152466
21:00+9nnw611565 0.0 1016618
18 may, wed
wed1800:00+6nw512720 0.0 1016475
03:00+4nw511785 0.0 1017425
06:00+4nw5128315 0.0 1018625
09:00+8nnw7106638 0.0 10201061
12:00+11nnw785581 0.0 10211421
15:00+12nnw785597 0.0 10221469
18:00+12nnw695994 0.0 10231474
21:00+9nnw386599 0.0 1025345
19 may, thu
thu1900:00+6wnw34795 0.0 102551
03:00+5wnw38865 0.0 1026142
06:00+5wnw389083 0.0 1026156
09:00+12wnw58625 0.0 1026649
12:00+16wnw6843100 0.0 10251372
15:00+18wnw6936100 0.0 10231710
18:00+18nw594686 0.0 1022868
21:00+13wnw356079 0.0 102268
20 may, fri
fri2000:00+12w3561100 0.0 102297
03:00+9w3374100 0.0 102136
06:00+11wsw2470100 0.0 102189
09:00+16wsw355878 0.0 1019414
12:00+21wsw5751100 0.0 10171199
15:00+20sw6855100 0.0 1013980
18:00+17w51072100 0.3 1012495
21:00+14w35939 0.8 101091